Location: Walsall
(52.5862°N, 1.9829°W)
Time: 01:21:22
(UTC+01:00)

X-37B - Pass Details

Date: 23 June 2021
Orbit: 383 x 392 km, 45.0° (Epoch: 01 July)

Event Time Altitude Azimuth Distance (km) Brightness Sun altitude
Rises 23:05:10 0° 224° (SW) 2,251 4.3 -9.3°
Reaches altitude 10° 23:07:50 10° 200° (SSW) 1,399 3.0 -9.4°
Maximum altitude 23:09:43 15° 163° (SSE) 1,146 2.3 -9.6°
Enters shadow 23:10:00 15° 157° (SSE) 1,152 2.3 -9.6°
